Location: Guferjoch
(46.7462°N, 8.4506°E)
Time: 13:16:24
(UTC+00:00)

Cosmos 2322 Rocket - Pass Details

Date: 14 July 2020
Orbit: 832 x 851 km, 71.0° (Epoch: 07 August)

Event Time Altitude Azimuth Distance (km) Brightness Sun altitude
Rises 02:43:56 0° 335° (NNW) 3,406 5.6 -9.1°
Reaches altitude 10° 02:46:27 10° 340° (NNW) 2,470 5.0 -8.8°
Maximum altitude 02:52:01 55° 58° (ENE) 1,010 3.1 -8.1°
Drops below altitude 10° 02:57:34 10° 136° (SE) 2,467 4.7 -7.4°
Sets 03:00:04 0° 141° (SE) 3,401 5.3 -7.1°
